Starlink 5762

operational
NORAD ID: 55590 Int'l Des: 2023-020 Owner: SPXS Country: US Constellation: starlink
LEOCIRCULAR

About Starlink 5762

Description loading...

Live Position

Loading 3D Globe...

Upcoming Passes

Altitude History

Altitude vs Time

uPlot chart will show altitude changes over time

Two-Line Element Set

1 55590U 23020X 26062.16668981 .00027835 00000-0 18936-2 0 9996
2 55590 43.0006 39.7704 0001510 239.9299 52.0241 15.05828480 5762
Epoch: Mar 3, 2026 • Age: 22 hours

Current Status

Altitude 552.9 km
Velocity 7.59 km/s
Sub-Earth Point 42.97°N, 3.02°W
Launch Date Feb 12, 2023
Age 3 years
Type internet

Technical Details

Classification Payload
Mass 305.00 kg
Dry Mass 290.00 kg
Total Mass 305.00 kg
Length 0.20 m
Diameter 2.80 m
Span 9.00 m
Shape Box + pan
Manufacturer SPXS
Bus Type Starlink
Phase Status In Orbit
Owner/State SPXS/US

Large Constellations

Loading constellations...